sat.trackr.live / text

‹ back to catalog

STARLINK-34900

NORAD 65374 · 2025-190Z

PAYLOAD ACTIVE UNKNOWN

§ Identity

Operator
Country
US
Launch date
2025-08-28
Launch site
AFETR
Launch vehicle
Mass (kg)
RCS (m²)

Purposes: comms

External: N2YO · Heavens-Above · Gunter

§ Orbital elements

Epoch: 2026-05-25T02:04:02.136576Z

Period
94.10 min
Inclination
53.1584°
Eccentricity
0.0001103
Mean motion
15.30205823 rev/d
Perigee alt
474.4 km
Apogee alt
476.0 km
Semi-major
6,853.3 km
B*
6.2232e-4
RAAN
173.1885°
Arg perigee
97.2726°
Mean anomaly
262.8400°
Rev number
4,093

§ Raw data

STARLINK-349001 65374U 25190Z   26145.08613584  .00018120  00000+0  62232-3 0  99942 65374  53.1584 173.1885 0001103  97.2726 262.8400 15.30205823 40931

JSON: /api/v1/satellites/65374 · /tle

For live sub-satellite position, see the globe view (requires WebGL).

§ Visibility from observer

Set your observer location to see the next 7 days of passes ≥ 10°. The values pass through the URL so the page stays shareable.

No JS? Fill the form by hand. The geolocation button needs JavaScript.